EW5206 Weather Reports


Display with metric or nautical units.
time (UTC)temp
F
wind
direction
speed
MPH
gust
MPH
rain 1hr
in
rain 24hr
in
rain mn
in
humidity
%
barometer
mb
20260505060019 57 0.0 0.0 0.00 0.00 0.00 61 1012.5
20260505054521 57 0.0 0.0 0.00 0.00 0.00 61 1012.5
20260505053014 57 0.0 0.0 0.00 0.00 0.00 61 1012.6
20260505051511 58 0.0 0.0 0.00 0.00 0.00 60 1012.5
20260505041503 60 0.0 0.0 0.00 0.00 0.00 58 1012.5
20260505034559 61 0.0 0.0 0.00 0.00 0.00 56 1012.6
20260505033100 61 0.0 0.0 0.00 0.00 0.00 57 1012.6
20260505031613 61 0.0 0.0 0.00 0.00 0.00 56 1012.9
20260505030058 62 0.0 0.0 0.00 0.00 0.00 55 1012.7
20260505024609 62 0.0 0.0 0.00 0.00 0.00 56 1013.0
20260505023057 63 0.0 0.0 0.00 0.00 0.00 55 1012.9
20260505021612 63 0.0 0.0 0.00 0.00 0.00 54 1013.0
20260505020056 63 0.0 0.0 0.00 0.00 0.00 53 1013.0
20260505014555 64 0.0 0.0 0.00 0.00 0.00 53 1013.1
20260505013057 64 0.0 0.0 0.00 0.00 0.00 52 1012.9
20260505011557 64 0.0 0.0 0.00 0.00 0.00 51 1012.8
20260505010055 65 0.0 0.0 0.00 0.00 0.00 52 1012.6
20260505004554 65 0.0 0.0 0.00 0.00 0.00 51 1012.4
20260505003053 66 0.0 0.0 0.00 0.00 0.00 49 1012.2
20260505001553 68 0.0 0.0 0.00 0.00 0.00 48 1012.1
20260505000056 69 0.0 0.0 0.00 0.00 0.00 47 1011.9
20260504234552 70 0.0 0.0 0.00 0.00 0.00 45 1012.0
20260504233059 70 0.0 0.0 0.00 0.00 0.00 44 1012.0
20260504231551 70 0.0 0.0 0.00 0.00 0.00 44 1011.9
20260504230052 71 0.0 0.0 0.00 0.00 0.00 42 1011.9
20260504224549 71 0.0 0.0 0.00 0.00 0.00 41 1011.9
20260504223054 71 0.0 0.0 0.00 0.00 0.00 42 1011.9
20260504221553 71 0.0 0.0 0.00 0.00 0.00 43 1011.9
20260504220104 71 0.0 0.0 0.00 0.00 0.00 43 1012.1
20260504214545 71 0.0 0.0 0.00 0.00 0.00 44 1012.3
20260504213055 71 0.0 0.0 0.00 0.00 0.00 44 1012.2
20260504211545 72 0.0 0.0 0.00 0.00 0.00 43 1012.3
20260504210046 72 0.0 0.0 0.00 0.00 0.00 43 1012.3
20260504204558 72 0.0 0.0 0.00 0.00 0.00 43 1012.2
20260504203043 72 0.0 0.0 0.00 0.00 0.00 43 1012.3
20260504201540 72 0.0 0.0 0.00 0.00 0.00 44 1012.4
20260504200043 72 0.0 0.0 0.00 0.00 0.00 44 1012.6
20260504194541 72 0.0 0.0 0.00 0.00 0.00 44 1013.2
20260504193036 72 0.0 0.0 0.00 0.00 0.00 44 1013.1
20260504191536 72 0.0 0.0 0.00 0.00 0.00 43 1013.2
20260504190037 72 0.0 0.0 0.00 0.00 0.00 41 1013.6
20260504184535 71 0.0 0.0 0.00 0.00 0.00 43 1013.4
20260504183032 71 0.0 0.0 0.00 0.00 0.00 43 1013.7
20260504181527 71 0.0 0.0 0.00 0.00 0.00 43 1014.0
20260504180025 71 0.0 0.0 0.00 0.00 0.00 42 1014.3
20260504174523 72 0.0 0.0 0.00 0.00 0.00 39 1014.7
20260504173024 74 0.0 0.0 0.00 0.00 0.00 39 1014.7
20260504171522 74 0.0 0.0 0.00 0.00 0.00 40 1014.6
20260504081523 47 0.0 0.0 0.00 0.00 0.00 59 1016.4